Weather History for Frankfort, MI

Change the Weather History Date:

Saturday, February 2, 2013

  Actual Average (KTVC) Record (KTVC)
Temperature  
Mean Temperature 14 °F 21 °F  
Max Temperature 18 °F 28 °F 44 °F (1903)
Min Temperature 9 °F 14 °F -23 °F (1961)
Degree Days  
Heating Degree Days 52 44  
Month to date heating degree days 88  
Since 1 July heating degree days 4244  
Moisture  
Dew Point 7 °F    
Average Humidity 75    
Maximum Humidity 83    
Minimum Humidity 55    
Precipitation  
Precipitation 0.00 in 0.06 in 0.36 in (1973)
Month to date precipitation 0.12  
Year to date precipitation 2.94  
Sea Level Pressure  
Sea Level Pressure 30.03 in    
Wind  
Wind Speed 7 mph (NNW)    
Max Wind Speed 14 mph    
Max Gust Speed 21 mph    
Visibility 5 miles    
Events Snow    
T = Trace of Precipitation, MM = Missing Value Source: NWS Daily Summary

Daily Weather History Graph

Daily Weather History Graph

Search for Another Location

Airport:

Trip Planner

Search our weather history database for the weather conditions in past years. The results will help you decide how hot, cold, wet, or windy it might be!

Date:

Astronomy

Feb. 02, 2013 Rise Set
Actual Time 8:02 AM EST 5:55 PM EST
Civil Twilight 7:31 AM EST 6:26 PM EST
Nautical Twilight 6:56 AM EST 7:01 PM EST
Astronomical Twilight 6:22 AM EST 7:35 PM EST
Moon 12:18 AM EST (2/2) 10:53 AM EST (2/2)
Length of Visible Light 10h 55m
Length of Day
9h 53m
Waning Gibbous, 60% of the Moon is Illuminated
Feb 2
Waning Gibbous
Feb 3
Last Quarter
Feb 10
New
Feb 17
First Quarter
Feb 25
Full

Hourly Weather History & Observations

Time (EST) Temp. Windchill Dew Point Humidity Pressure Visibility Wind Dir Wind Speed Gust Speed Precip Events Conditions
12:15 AM 10.2 °F -4.3 °F 3.9 °F 76% 30.10 in 4.0 mi West 11.5 mph 19.6 mph N/A Snow Light Snow
12:35 AM 10.2 °F -5.0 °F 3.2 °F 73% 30.09 in 5.0 mi West 12.7 mph 19.6 mph N/A Snow Light Snow
12:55 AM 10.2 °F -5.7 °F 3.9 °F 76% 30.08 in 3.0 mi WNW 13.8 mph 20.7 mph N/A Snow Light Snow
1:15 AM 10.2 °F -3.5 °F 3.6 °F 74% 30.08 in 4.0 mi WNW 10.4 mph 18.4 mph N/A Snow Light Snow
1:36 AM 10.2 °F -5.7 °F 4.6 °F 78% 30.07 in 2.5 mi WNW 13.8 mph 18.4 mph N/A Snow Light Snow
1:56 AM 10.2 °F -4.3 °F 4.6 °F 78% 30.06 in 2.5 mi West 11.5 mph 16.1 mph N/A Snow Light Snow
2:16 AM 10.4 °F -4.8 °F 4.6 °F 78% 30.06 in 2.5 mi WNW 12.7 mph - N/A Snow Light Snow
2:36 AM 10.4 °F -2.4 °F 4.8 °F 78% 30.06 in 3.0 mi WNW 9.2 mph - N/A Snow Light Snow
2:56 AM 10.4 °F -4.1 °F 5.0 °F 79% 30.07 in 2.5 mi WNW 11.5 mph - N/A Snow Light Snow
3:11 AM 10.4 °F -3.3 °F 5.0 °F 79% 30.06 in 2.0 mi WNW 10.4 mph - N/A Snow Light Snow
3:31 AM 10.2 °F -5.0 °F 4.3 °F 77% 30.06 in 2.5 mi WNW 12.7 mph 19.6 mph N/A Snow Light Snow
3:52 AM 10.2 °F -2.7 °F 5.4 °F 81% 30.05 in 1.8 mi West 9.2 mph - N/A Snow Light Snow
4:12 AM 10.0 °F -3.7 °F 5.5 °F 82% 30.05 in 1.5 mi West 10.4 mph - N/A Snow Light Snow
4:32 AM 10.0 °F -3.7 °F 4.8 °F 79% 30.04 in 1.8 mi WNW 10.4 mph 18.4 mph N/A Snow Light Snow
4:52 AM 9.5 °F -5.2 °F 4.8 °F 81% 30.04 in 1.5 mi NW 11.5 mph - N/A Snow Light Snow
5:12 AM 9.5 °F -3.5 °F 3.7 °F 77% 30.03 in 4.0 mi NW 9.2 mph - N/A Snow Light Snow
5:32 AM 9.7 °F -1.3 °F 4.1 °F 78% 30.03 in 2.0 mi WNW 6.9 mph - N/A Snow Light Snow
5:52 AM 9.5 °F 1.2 °F 4.6 °F 81% 30.02 in 2.0 mi NNW 4.6 mph - N/A Snow Light Snow
6:12 AM 9.5 °F -0.3 °F 4.8 °F 81% 30.02 in 2.5 mi NW 5.8 mph - N/A Snow Light Snow
6:32 AM 10.0 °F - 5.7 °F 83% 30.02 in 1.8 mi Calm Calm - N/A Snow Light Snow
6:52 AM 10.0 °F 1.8 °F 5.4 °F 81% 30.02 in 2.5 mi NNW 4.6 mph - N/A Snow Light Snow
7:13 AM 10.0 °F 3.6 °F 5.4 °F 81% 30.02 in 1.8 mi NNW 3.5 mph - N/A Snow Light Snow
7:33 AM 10.4 °F - 5.5 °F 81% 30.02 in 2.0 mi Calm Calm - N/A Snow Light Snow
7:53 AM 10.2 °F - 5.9 °F 83% 30.02 in 1.8 mi Calm Calm - N/A Snow Light Snow
8:13 AM 10.4 °F - 5.7 °F 81% 30.03 in 2.0 mi Calm Calm - N/A Snow Light Snow
8:33 AM 11.7 °F - 5.9 °F 78% 30.03 in 0.8 mi Calm Calm - N/A Snow Light Snow
8:53 AM 11.3 °F - 5.9 °F 79% 30.03 in 2.5 mi Calm Calm - N/A Snow Light Snow
9:13 AM 12.0 °F - 7.5 °F 82% 30.03 in 1.0 mi Calm Calm - N/A Snow Light Snow
9:33 AM 12.6 °F 2.2 °F 7.3 °F 80% 30.03 in 2.5 mi NNW 6.9 mph - N/A Snow Light Snow
9:53 AM 12.4 °F 6.3 °F 7.0 °F 79% 30.04 in 2.5 mi ENE 3.5 mph - N/A Snow Light Snow
10:13 AM 12.2 °F - 7.3 °F 81% 30.04 in 2.0 mi Calm Calm - N/A Snow Light Snow
10:33 AM 12.7 °F 6.7 °F 7.5 °F 80% 30.04 in 4.0 mi NE 3.5 mph - N/A Snow Light Snow
10:53 AM 12.7 °F - 7.7 °F 80% 30.04 in 1.2 mi Calm Calm - N/A Snow Light Snow
11:14 AM 14.5 °F 7.1 °F 7.5 °F 74% 30.03 in 7.0 mi ENE 4.6 mph - N/A Snow Light Snow
11:34 AM 15.1 °F 9.4 °F 6.3 °F 68% 30.04 in 10.0 mi NNW 3.5 mph - N/A   Overcast
11:54 AM 14.4 °F - 8.2 °F 77% 30.03 in 0.8 mi Calm Calm - N/A Snow Light Snow
12:14 PM 14.5 °F - 9.5 °F 80% 30.03 in 1.0 mi Calm Calm - N/A Snow Light Snow
12:34 PM 15.3 °F 7.9 °F 9.9 °F 79% 30.02 in 1.2 mi NNW 4.6 mph - N/A Snow Light Snow
12:54 PM 16.3 °F 9.2 °F 8.6 °F 72% 30.01 in 3.0 mi NNW 4.6 mph - N/A Snow Light Snow
1:15 PM 17.8 °F 8.5 °F 5.5 °F 59% 30.01 in 10.0 mi NNE 6.9 mph - N/A   Scattered Clouds
1:35 PM 18.0 °F 8.7 °F 4.1 °F 55% 30.00 in 10.0 mi North 6.9 mph 20.7 mph N/A   Mostly Cloudy
1:55 PM 16.7 °F 8.3 °F 9.9 °F 74% 30.01 in 2.0 mi NNW 5.8 mph - N/A Snow Light Snow
2:15 PM 16.7 °F 9.6 °F 11.3 °F 79% 30.00 in 2.5 mi North 4.6 mph - N/A Snow Light Snow
2:35 PM 17.6 °F 12.3 °F 10.9 °F 75% 30.00 in 2.0 mi NNW 3.5 mph - N/A Snow Light Snow
2:55 PM 18.3 °F 9.1 °F 11.3 °F 74% 29.99 in 1.5 mi NNW 6.9 mph - N/A Snow Light Snow
3:15 PM 16.7 °F 7.2 °F 11.3 °F 79% 30.00 in 1.2 mi NE 6.9 mph - N/A Snow Light Snow
3:35 PM 16.7 °F 11.2 °F 11.1 °F 79% 30.00 in 2.0 mi NE 3.5 mph - N/A Snow Light Snow
3:55 PM 17.6 °F 12.3 °F 10.0 °F 72% 30.00 in 7.0 mi NNE 3.5 mph - N/A   Overcast
4:15 PM 17.4 °F 10.4 °F 10.4 °F 74% 30.01 in 10.0 mi NNE 4.6 mph - N/A   Overcast
4:36 PM 17.4 °F - 7.5 °F 65% 30.01 in 10.0 mi Calm Calm - N/A   Overcast
4:56 PM 17.2 °F 10.2 °F 8.8 °F 69% 30.01 in 10.0 mi ENE 4.6 mph - N/A   Overcast
5:16 PM 16.7 °F - 7.5 °F 67% 30.01 in 10.0 mi Calm Calm - N/A   Overcast
5:36 PM 16.7 °F 11.2 °F 6.4 °F 64% 30.01 in 10.0 mi NNE 3.5 mph - N/A   Overcast
5:56 PM 16.3 °F 10.8 °F 6.3 °F 65% 30.02 in 10.0 mi ENE 3.5 mph - N/A   Overcast
6:16 PM 16.2 °F 9.0 °F 5.9 °F 64% 30.02 in 10.0 mi NE 4.6 mph - N/A   Overcast
6:31 PM 15.8 °F - 6.3 °F 66% 30.02 in 10.0 mi Calm Calm - N/A   Overcast
6:51 PM 15.8 °F - 5.9 °F 65% 30.02 in 10.0 mi Calm Calm - N/A   Overcast
7:11 PM 15.8 °F - 6.1 °F 66% 30.03 in 10.0 mi Calm Calm - N/A   Overcast
7:32 PM 15.6 °F - 6.4 °F 67% 30.03 in 10.0 mi Calm Calm - N/A   Overcast
7:52 PM 15.6 °F - 6.4 °F 67% 30.03 in 10.0 mi Calm Calm - N/A   Overcast
8:12 PM 15.3 °F - 6.6 °F 69% 30.03 in 10.0 mi Calm Calm - N/A   Overcast
8:32 PM 14.7 °F - 7.7 °F 74% 30.03 in 10.0 mi Calm Calm - N/A   Overcast
8:52 PM 14.5 °F - 7.7 °F 74% 30.02 in 10.0 mi Calm Calm - N/A   Overcast
9:12 PM 14.5 °F - 7.3 °F 73% 30.02 in 10.0 mi Calm Calm - N/A   Overcast
9:32 PM 14.0 °F - 7.7 °F 76% 30.01 in 10.0 mi Calm Calm - N/A   Overcast
9:53 PM 14.0 °F - 7.5 °F 75% 30.01 in 10.0 mi Calm Calm - N/A   Overcast
10:13 PM 14.0 °F - 7.3 °F 75% 30.01 in 10.0 mi Calm Calm - N/A   Overcast
10:33 PM 14.0 °F - 7.7 °F 76% 30.01 in 10.0 mi Calm Calm - N/A   Overcast
10:53 PM 14.0 °F - 7.7 °F 76% 30.00 in 10.0 mi Calm Calm - N/A   Overcast
11:13 PM 13.8 °F - 8.2 °F 78% 30.00 in 10.0 mi Calm Calm - N/A   Overcast
11:33 PM 14.0 °F 8.2 °F 8.2 °F 78% 29.99 in 10.0 mi ESE 3.5 mph - N/A   Overcast